Torna al catalogo

OPS 4682 DEB

AttivoPO
NORAD 18967·DEBRIS·🇺🇸 United States

Lanciato Apr 3, 1965 da Vandenberg Space Force Base

Loading…

Prossimi Passaggi (prossime 24 ore)

TLE

AggiornatoSource: Space-Track

Epoca: Sep 14, 2026, 13:57 UTC

1 18967U 65027AP  26257.58179027  .00000342  00000-0  11747-2 0  9993
2 18967  90.2534  12.4031 0026537 268.5202 220.9605 12.96060293829893

Traccia OPS 4682 DEB in tempo reale con AllMySat

Download on the App Store